Location: Kawakawa
(35.3830°S, 174.0670°E)
Time: 21:48:58
(UTC+13:00)

Explorer 7 - Pass Details

Date: 18 December 2019
Orbit: 485 x 679 km, 50.3° (Epoch: 27 January)

Event Time Altitude Azimuth Distance (km) Brightness Sun altitude
Rises 03:30:50 0° 271° (W) 2,677 - -23.6°
Reaches altitude 10° 03:33:35 10° 253° (WSW) 1,759 - -23.3°
Exits shadow 03:35:06 16° 233° (SW) 1,389 8.9 -23.1°
Maximum altitude 03:36:30 19° 206° (SSW) 1,249 8.9 -22.9°
Drops below altitude 10° 03:39:23 10° 158° (SSE) 1,715 10.4 -22.6°
Sets 03:42:01 0° 139° (SE) 2,588 11.7 -22.3°
